This demonstration page uses our WeatherBlox Daily Observations layout. Learn more.

Left ArrowRight Arrow

44.31136, -96.79839

Hourly Observations for June 5, 2019

Temp ( °F °C ) Dew Point ( °F °C ) Humidity (%) Winds ( mph kmh ) Pressure ( in mb ) Visibility ( mi km ) Precip ( " mm )
12:56 am 00:56 Clear 64 17.8 60 15.6 87 87 SW 7 11 29.74 1007 10 16 0.00 0.00
1:56 am 01:56 Clear 63 17.2 60 15.6 90 90 Calm 29.78 1008 10 16 0.00 0.00
3:56 am 03:56 Clear 61 16.1 58 14.4 90 90 SE 9 15 29.80 1009 10 16 0.00 0.00
4:56 am 04:56 Clear 61 16.1 57 13.9 87 87 SSE 8 13 29.80 1009 10 16 0.00 0.00
5:56 am 05:56 Sunny 62 16.7 57 13.9 84 84 SSW 5 7 29.81 1010 10 16 0.00 0.00
6:56 am 06:56 Sunny 61 16.1 59 15 93 93 Calm 29.83 1010 10 16 0.00 0.00
7:56 am 07:56 Sunny 65 18.3 61 16.1 87 87 NW 13 20 29.84 1011 10 16 0.00 0.00
8:56 am 08:56 Sunny 67 19.4 59 15 76 76 N 14 22 29.86 1011 10 16 0.00 0.00
9:56 am 09:56 Sunny 70 21.1 60 15.6 71 71 N 14 22 29.87 1012 10 16 0.00 0.00
10:56 am 10:56 Sunny 74 23.3 62 16.7 67 67 N 13 20 29.88 1012 10 16 0.00 0.00
11:56 am 11:56 Sunny 76 24.4 62 16.7 62 62 NNE 17 28 29.88 1012 10 16 0.00 0.00
12:56 pm 12:56 Sunny 76 24.4 60 15.6 58 58 NNE 12 19 29.90 1013 10 16 0.00 0.00
1:56 pm 13:56 Sunny 78 25.6 58 14.4 50 50 N 9 15 N/A 10 16 0.00 0.00
2:56 pm 14:56 Sunny 79 26.1 56 13.3 45 45 NNE 13 20 29.90 1012 10 16 0.00 0.00
3:56 pm 15:56 Sunny 80 26.7 53 11.7 39 39 N 13 20 29.90 1012 10 16 0.00 0.00
4:56 pm 16:56 Sunny 80 26.7 52 11.1 38 38 N 9 15 29.89 1012 10 16 0.00 0.00
5:56 pm 17:56 Sunny 80 26.7 49 9.4 34 34 NE 9 15 29.88 1012 10 16 0.00 0.00
7:56 pm 19:56 Sunny 78 25.6 48 8.9 35 35 NNE 5 7 N/A 10 16 0.00 0.00
8:56 pm 20:56 Sunny 75 23.9 48 8.9 39 39 NNE 5 7 29.89 1012 10 16 0.00 0.00
9:56 pm 21:56 Clear 71 21.7 48 8.9 44 44 NE 3 6 29.90 1013 10 16 0.00 0.00
10:56 pm 22:56 Clear 66 18.9 51 10.6 59 59 E 3 6 29.91 1013 9 14 0.00 0.00
11:56 pm 23:56 Clear 64 17.8 50 10 60 60 SE 3 6 29.91 1013 9 14 0.00 0.00

Powered by AerisWeather